Frome Half Marathon 2016
Skip Navigation Links
Results
Course Map
Past Results
Details
17 Jul 2016
HyperLink
Page 1 of 6 (286 items)
[1]23456
Pos
Bib No
Fav
Share
Name
King of the Hill
Category
Cat Pos
Gender
Gen Pos
Club
Pace
1234Daniel JONES00:03:26.3Top 3 Men1Male1TEAM BATH ATHLETICS CLUB 9.0 m/hr
2233Dan JONES00:03:39.7Top 3 Men2Male2  8.4 m/hr
3162Tom CRAGGS00:03:41.8Top 3 Men3Male3WINCHESTER & DISTRICT AC 8.4 m/hr
4145Ed CAMPBELL00:03:54.8Sen1Male4  7.9 m/hr
5380Andrew TRIGG00:04:00.4V501Male5ERME VALLEY HARRIERS 7.7 m/hr
6402Georgia WOOD00:04:06.8Top 3 Women1Female1  7.5 m/hr
7303Gavin PARK00:04:14.4Sen2Male6AVON VALLEY RUNNERS 7.3 m/hr
8318Nick POOLE00:04:16.0Sen3Male7  7.2 m/hr
9216Peter GRIST00:04:17.5Sen4Male8WELLS CITY HARRIERS 7.2 m/hr
10292Jason OCALLAGHAN00:04:18.9V401Male9ATHLOS TRI 7.2 m/hr
11463Liam CULLIFORD00:04:19.4Sen5Male10  7.1 m/hr
12261Andy MAIDMENT00:04:21.8Sen6Male11  7.1 m/hr
13414Andy COX00:04:22.6Sen7Male12NONE 7.1 m/hr
14411Chris BURGHES00:04:22.8V402Male13BASINGSTOKE & MID HANTS AC 7.1 m/hr
15312Simon PHILLIPS00:04:24.0V502Male14  7.0 m/hr
16348Luke SHIPWAY00:04:25.9Sen8Male15CALNE RUNNING CLUB 7.0 m/hr
17421Rob GREEN00:04:28.6V403Male16  6.9 m/hr
18429Kirk LATHAM00:04:32.3Sen9Male17ATHLOS TRI 6.8 m/hr
19250Scott LATHAM00:04:32.4Sen10Male18HOT CHILLI 6.8 m/hr
20270John MCKENZIE00:04:32.7V60+1Male19HEDGE END RUNNING CLUB 6.8 m/hr
21263Dan MASTERS00:04:33.4V404Male20  6.8 m/hr
22176Justin DOHERTY00:04:34.7V405Male21FROME RUNNING CLUB 6.7 m/hr
23329Keith ROBINSON00:04:35.2V60+2Male22FROME RUNNING CLUB 6.7 m/hr
24371Chris SUTER00:04:39.1V503Male23  6.6 m/hr
25284Lucy MORRISON00:04:39.8Top 3 Women2Female2CALNE RUNNING CLUB 6.6 m/hr
26313Neo PHOENIX00:04:40.3Sen11Male24  6.6 m/hr
27438Edward PEAT00:04:40.4Sen12Male25  6.6 m/hr
28456Caroline WHEELHOUSE00:04:41.6Top 3 Women3Female3DONCASTER ATHLETIC CLUB 6.6 m/hr
29281Nick MOON00:04:42.1Sen13Male26  6.6 m/hr
30407Haydn ALKINS00:04:45.5Sen14Male27  6.5 m/hr
31372Matt SUTHERLAND00:04:45.5Sen15Male28AFFINITY WELLBEING 6.5 m/hr
32179Henry DUFOSEE00:04:46.2Sen16Male29  6.5 m/hr
33395Ryan WHEELER00:04:47.7Sen17Male30  6.4 m/hr
34376James THOMAS00:04:49.7V406Male31FROME TRI CLUB 6.4 m/hr
35443Mike SARGEANT00:04:50.0V407Male32AVON VALLEY RUNNERS 6.4 m/hr
36125Mark BLAY00:04:51.0V408Male33  6.4 m/hr
37430Darren LEGG00:04:51.1V409Male34  6.4 m/hr
38206Giulio GENUARDI00:04:54.1V4010Male35  6.3 m/hr
39200Jonathan FRANCIS00:04:54.8V4011Male36FROME RUNNING CLUB 6.3 m/hr
40106Phil AVERY00:04:55.0Sen18Male37  6.3 m/hr
41351Andrew SIMPSON00:04:56.2Sen19Male38  6.3 m/hr
42428Alex LAIRD00:04:57.3V504Male39WESTBURY RUNNING GROUP 6.2 m/hr
43346Ben SHAW00:04:59.4Sen20Male40  6.2 m/hr
44275Graham MEHTA00:04:59.4V4012Male41UNATTACHED 6.2 m/hr
45413Paul COSTELLO00:05:00.2V60+3Male42  6.2 m/hr
46159Matthew COOKE00:05:01.1Sen21Male43CHEDDAR RC 6.2 m/hr
47409Sebastian BABICKI00:05:05.2Sen22Male44  6.1 m/hr
48134Chris BRITTON00:05:05.7Sen23Male45  6.1 m/hr
49119James BENNETT00:05:06.2Sen24Male46HAYWARDS HEATH HARRIERS 6.1 m/hr
50187Lloyd EMEKA00:05:06.4Sen25Male47CLAPHAM CHASERS 6.1 m/hr
Page 1 of 6 (286 items)
[1]23456
fb